"Period start","avg(HW err(1)/warn(2) (#))","avg(Visibility (m))","avg(Weather code (#))","avg(Precip intensity (mm/h))","min(HW err(1)/warn(2) (#))","max(HW err(1)/warn(2) (#))","std(HW err(1)/warn(2) (#))","med(HW err(1)/warn(2) (#))","min(Visibility (m))","max(Visibility (m))","std(Visibility (m))","med(Visibility (m))","min(Weather code (#))","max(Weather code (#))","std(Weather code (#))","med(Weather code (#))","min(Precip intensity (mm/h))","max(Precip intensity (mm/h))","std(Precip intensity (mm/h))","med(Precip intensity (mm/h))"
2014-09-24 00:00:00,2,35591,0,0.00,2,2,0,2,24132,44967,7220,36128,0,0,0,0,0.00,0.00,0.00,0.00
2014-09-24 00:10:00,2,32770,0,0.00,2,2,0,2,22654,45344,6903,32473,0,0,0,0,0.00,0.00,0.00,0.00
2014-09-24 00:20:00,2,42542,0,0.00,2,2,0,2,30525,50000,5945,44094,0,0,0,0,0.00,0.00,0.00,0.00
2014-09-24 00:30:00,2,47194,0,0.00,2,2,0,2,41331,50000,3102,48450,0,0,0,0,0.00,0.00,0.00,0.00
2014-09-24 00:40:00,2,46135,0,0.00,2,2,0,2,41507,50000,3434,46402,0,0,0,0,0.00,0.00,0.00,0.00
2014-09-24 00:50:00,2,46222,0,0.00,2,2,0,2,36237,50000,4319,47449,0,0,0,0,0.00,0.00,0.00,0.00
2014-09-24 01:00:00,2,44817,0,0.00,2,2,0,2,31100,50000,5621,46823,0,0,0,0,0.00,0.00,0.00,0.00
2014-09-24 01:10:00,2,38890,0,0.00,2,2,0,2,26866,50000,6989,39201,0,0,0,0,0.00,0.00,0.00,0.00
2014-09-24 01:20:00,2,36703,12,0.01,2,2,0,2,13099,50000,10103,38711,0,41,19,0,0.00,0.05,0.02,0.00
2014-09-24 01:30:00,2,41734,0,0.00,2,2,0,2,27011,50000,7668,43012,0,0,0,0,0.00,0.00,0.00,0.00
2014-09-24 01:40:00,2,41972,0,0.00,2,2,0,2,30628,50000,7080,44744,0,0,0,0,0.00,0.00,0.00,0.00
2014-09-24 01:50:00,2,43326,0,0.00,2,2,0,2,30155,50000,6550,44144,0,0,0,0,0.00,0.00,0.00,0.00
2014-09-24 02:00:00,2,47446,0,0.00,2,2,0,2,41493,50000,3176,49814,0,0,0,0,0.00,0.00,0.00,0.00
2014-09-24 02:10:00,2,48928,0,0.00,2,2,0,2,45767,50000,1648,50000,0,0,0,0,0.00,0.00,0.00,0.00
2014-09-24 02:20:00,2,48257,0,0.00,2,2,0,2,37260,50000,3747,50000,0,0,0,0,0.00,0.00,0.00,0.00
2014-09-24 02:30:00,2,42916,0,0.00,2,2,0,2,29105,50000,6276,44834,0,0,0,0,0.00,0.00,0.00,0.00
2014-09-24 02:40:00,2,43548,0,0.00,2,2,0,2,34543,50000,5224,43666,0,0,0,0,0.00,0.00,0.00,0.00
2014-09-24 02:50:00,2,47407,0,0.00,2,2,0,2,40061,50000,3270,48585,0,0,0,0,0.00,0.00,0.00,0.00
2014-09-24 03:00:00,2,47437,0,0.00,2,2,0,2,42432,50000,2926,48650,0,0,0,0,0.00,0.00,0.00,0.00
2014-09-24 03:10:00,2,50000,0,0.00,2,2,0,2,50000,50000,0,50000,0,0,0,0,0.00,0.00,0.00,0.00
2014-09-24 03:20:00,2,48868,0,0.00,2,2,0,2,40871,50000,2703,50000,0,0,0,0,0.00,0.00,0.00,0.00
2014-09-24 03:30:00,2,46640,0,0.00,2,2,0,2,33782,50000,5402,50000,0,0,0,0,0.00,0.00,0.00,0.00
2014-09-24 03:40:00,2,49162,0,0.00,2,2,0,2,45470,50000,1500,50000,0,0,0,0,0.00,0.00,0.00,0.00
2014-09-24 03:50:00,2,50000,0,0.00,2,2,0,2,50000,50000,0,50000,0,0,0,0,0.00,0.00,0.00,0.00
2014-09-24 04:00:00,2,49596,0,0.00,2,2,0,2,46474,50000,1052,50000,0,0,0,0,0.00,0.00,0.00,0.00
2014-09-24 04:10:00,2,48037,0,0.00,2,2,0,2,39736,50000,3327,50000,0,0,0,0,0.00,0.00,0.00,0.00
2014-09-24 04:20:00,2,49387,0,0.00,2,2,0,2,46460,50000,1106,50000,0,0,0,0,0.00,0.00,0.00,0.00
2014-09-24 04:30:00,2,48062,0,0.00,2,2,0,2,41467,50000,2475,48568,0,0,0,0,0.00,0.00,0.00,0.00
2014-09-24 04:40:00,2,49385,0,0.00,2,2,0,2,45621,50000,1361,50000,0,0,0,0,0.00,0.00,0.00,0.00
2014-09-24 04:50:00,2,49506,0,0.00,2,2,0,2,47621,50000,838,50000,0,0,0,0,0.00,0.00,0.00,0.00
2014-09-24 05:00:00,2,49927,0,0.00,2,2,0,2,49580,50000,132,50000,0,0,0,0,0.00,0.00,0.00,0.00
2014-09-24 05:10:00,2,49744,0,0.00,2,2,0,2,48575,50000,507,50000,0,0,0,0,0.00,0.00,0.00,0.00
2014-09-24 05:20:00,2,49983,0,0.00,2,2,0,2,49829,50000,51,50000,0,0,0,0,0.00,0.00,0.00,0.00
2014-09-24 05:30:00,2,49966,0,0.00,2,2,0,2,49661,50000,102,50000,0,0,0,0,0.00,0.00,0.00,0.00
2014-09-24 05:40:00,2,50000,0,0.00,2,2,0,2,50000,50000,0,50000,0,0,0,0,0.00,0.00,0.00,0.00
2014-09-24 05:50:00,2,49664,0,0.00,2,2,0,2,47753,50000,718,50000,0,0,0,0,0.00,0.00,0.00,0.00
2014-09-24 06:00:00,2,50000,0,0.00,2,2,0,2,50000,50000,0,50000,0,0,0,0,0.00,0.00,0.00,0.00
2014-09-24 06:10:00,2,49806,0,0.00,2,2,0,2,48278,50000,513,50000,0,0,0,0,0.00,0.00,0.00,0.00
2014-09-24 06:20:00,2,50000,0,0.00,2,2,0,2,50000,50000,0,50000,0,0,0,0,0.00,0.00,0.00,0.00
2014-09-24 06:30:00,2,50000,0,0.00,2,2,0,2,50000,50000,0,50000,0,0,0,0,0.00,0.00,0.00,0.00
2014-09-24 06:40:00,2,31931,35,0.03,2,2,0,2,11175,47891,13486,33074,0,71,25,41,0.00,0.15,0.04,0.03
2014-09-24 06:50:00,2,12036,73,0.17,2,2,0,2,7138,21951,4400,11250,71,77,3,71,0.05,0.50,0.16,0.10
2014-09-24 07:00:00,2,7444,71,0.25,2,2,0,2,6673,8065,421,7414,71,71,0,71,0.10,0.35,0.09,0.25
2014-09-24 07:10:00,2,5783,71,0.26,2,2,0,2,4883,6835,628,5762,71,71,0,71,0.15,0.40,0.08,0.25
2014-09-24 07:20:00,2,7736,72,0.13,2,2,0,2,5560,11425,1860,7779,71,77,2,71,0.00,0.30,0.11,0.05
2014-09-24 07:30:00,2,14133,70,0.02,2,2,0,2,11142,18387,2651,13432,41,77,14,77,0.00,0.05,0.02,0.00
2014-09-24 07:40:00,2,11968,71,0.06,2,2,0,2,9279,15428,2007,12184,41,77,10,74,0.05,0.10,0.02,0.05
2014-09-24 07:50:00,2,23761,76,0.01,2,2,0,2,10740,44184,12613,19942,71,77,2,77,0.00,0.05,0.02,0.00
2014-09-24 08:00:00,2,19215,55,0.03,2,2,0,2,9782,33935,6869,17529,41,77,18,41,0.00,0.25,0.08,0.00
2014-09-24 08:10:00,2,5750,71,0.42,2,2,0,2,4845,6787,756,5399,71,71,0,71,0.20,0.65,0.15,0.47
2014-09-24 08:20:00,2,6920,71,0.47,2,2,0,2,4989,9474,1321,6712,71,71,0,71,0.10,1.10,0.35,0.33
2014-09-24 08:30:00,2,6257,71,0.30,2,2,0,2,4693,8011,907,6296,71,71,0,71,0.10,0.80,0.20,0.20
2014-09-24 08:40:00,2,13618,73,0.08,2,2,0,2,8343,22494,4475,11692,71,77,3,71,0.00,0.15,0.05,0.08
2014-09-24 08:50:00,2,17470,49,0.07,2,2,0,2,11243,36119,7402,14098,41,77,12,41,0.00,0.15,0.05,0.05
2014-09-24 09:00:00,2,41060,25,0.03,2,2,0,2,19445,50000,11893,49505,0,71,31,0,0.00,0.25,0.07,0.00
2014-09-24 09:10:00,2,47498,4,0.00,2,2,0,2,38560,50000,4222,49960,0,41,12,0,0.00,0.00,0.00,0.00
2014-09-24 09:20:00,2,43929,24,0.00,2,2,0,2,21262,50000,8458,47151,0,61,25,20,0.00,0.00,0.00,0.00
2014-09-24 09:30:00,2,39985,12,0.01,2,2,0,2,10424,50000,12481,45227,0,41,19,0,0.00,0.15,0.05,0.00
2014-09-24 09:40:00,2,46649,0,0.00,2,2,0,2,38780,50000,3485,47303,0,0,0,0,0.00,0.00,0.00,0.00
2014-09-24 09:50:00,2,50000,0,0.00,2,2,0,2,50000,50000,0,50000,0,0,0,0,0.00,0.00,0.00,0.00
2014-09-24 10:00:00,2,49342,0,0.00,2,2,0,2,43420,50000,1974,50000,0,0,0,0,0.00,0.00,0.00,0.00
2014-09-24 10:10:00,2,49461,0,0.00,2,2,0,2,48166,50000,719,50000,0,0,0,0,0.00,0.00,0.00,0.00
2014-09-24 10:20:00,2,44515,0,0.00,2,2,0,2,33827,50000,6250,48462,0,0,0,0,0.00,0.00,0.00,0.00
2014-09-24 10:30:00,2,46954,0,0.00,2,2,0,2,37280,50000,4047,48380,0,0,0,0,0.00,0.00,0.00,0.00
2014-09-24 10:40:00,2,42778,0,0.00,2,2,0,2,21388,48294,7532,45502,0,0,0,0,0.00,0.00,0.00,0.00
2014-09-24 10:50:00,2,31589,24,0.00,2,2,0,2,22283,35867,3530,32721,0,77,26,20,0.00,0.00,0.00,0.00
2014-09-24 11:00:00,2,41423,37,0.00,2,2,0,2,25303,50000,8784,42232,0,77,37,36,0.00,0.00,0.00,0.00
2014-09-24 11:10:00,2,49106,0,0.00,2,2,0,2,44869,50000,1812,50000,0,0,0,0,0.00,0.00,0.00,0.00
2014-09-24 11:20:00,2,50000,0,0.00,2,2,0,2,50000,50000,0,50000,0,0,0,0,0.00,0.00,0.00,0.00
2014-09-24 11:30:00,2,49719,0,0.00,2,2,0,2,48136,50000,598,50000,0,0,0,0,0.00,0.00,0.00,0.00
2014-09-24 11:40:00,2,47820,0,0.00,2,2,0,2,41000,50000,2746,48988,0,0,0,0,0.00,0.00,0.00,0.00
2014-09-24 11:50:00,2,43257,0,0.00,2,2,0,2,35891,46424,2847,43524,0,0,0,0,0.00,0.00,0.00,0.00
2014-09-24 12:00:00,2,27220,23,0.01,2,2,0,2,8579,47853,15302,20424,0,71,25,20,0.00,0.05,0.02,0.00
2014-09-24 12:10:00,2,38926,38,0.00,2,2,0,2,23017,50000,7508,41038,0,77,38,36,0.00,0.00,0.00,0.00
2014-09-24 12:20:00,2,14286,52,0.02,2,2,0,2,9951,25732,4073,13198,0,77,34,71,0.00,0.15,0.05,0.00
2014-09-24 12:30:00,2,15903,71,0.03,2,2,0,2,9055,23133,4057,16300,71,71,0,71,0.00,0.15,0.05,0.00
2014-09-24 12:40:00,2,20207,73,0.01,2,2,0,2,11199,26213,5062,22053,71,77,3,71,0.00,0.05,0.02,0.00
2014-09-24 12:50:00,2,17546,0,0.00,2,2,0,2,14003,22581,2558,17234,0,0,0,0,0.00,0.00,0.00,0.00
2014-09-24 13:00:00,2,24742,0,0.00,2,2,0,2,19974,28012,2513,25269,0,0,0,0,0.00,0.00,0.00,0.00
2014-09-24 13:10:00,2,29302,0,0.00,2,2,0,2,20915,36813,4420,29838,0,0,0,0,0.00,0.00,0.00,0.00
2014-09-24 13:20:00,2,38119,0,0.00,2,2,0,2,29348,48691,7023,36206,0,0,0,0,0.00,0.00,0.00,0.00
2014-09-24 13:30:00,2,49591,0,0.00,2,2,0,2,46703,50000,991,50000,0,0,0,0,0.00,0.00,0.00,0.00
2014-09-24 13:40:00,2,46961,0,0.00,2,2,0,2,37349,50000,3870,48532,0,0,0,0,0.00,0.00,0.00,0.00
2014-09-24 13:50:00,2,49654,0,0.00,2,2,0,2,47995,50000,650,50000,0,0,0,0,0.00,0.00,0.00,0.00
2014-09-24 14:00:00,2,37306,0,0.00,2,2,0,2,20761,50000,9161,35170,0,0,0,0,0.00,0.00,0.00,0.00
2014-09-24 14:10:00,2,23857,28,0.02,2,2,0,2,13671,39958,7755,21254,0,41,19,40,0.00,0.05,0.02,0.00
2014-09-24 14:20:00,2,36896,30,0.01,2,2,0,2,14294,50000,10827,39742,0,77,32,20,0.00,0.05,0.02,0.00
2014-09-24 14:30:00,2,36547,36,0.01,2,2,0,2,11658,50000,13504,42006,0,77,36,36,0.00,0.05,0.02,0.00
2014-09-24 14:40:00,2,47474,0,0.00,2,2,0,2,41275,50000,2862,48766,0,0,0,0,0.00,0.00,0.00,0.00
2014-09-24 14:50:00,2,49075,0,0.00,2,2,0,2,45691,50000,1494,50000,0,0,0,0,0.00,0.00,0.00,0.00
2014-09-24 15:00:00,2,48574,0,0.00,2,2,0,2,43387,50000,2009,49312,0,0,0,0,0.00,0.00,0.00,0.00
2014-09-24 15:10:00,2,50000,0,0.00,2,2,0,2,50000,50000,0,50000,0,0,0,0,0.00,0.00,0.00,0.00
2014-09-24 15:20:00,2,49984,0,0.00,2,2,0,2,49841,50000,48,50000,0,0,0,0,0.00,0.00,0.00,0.00
2014-09-24 15:30:00,2,49106,0,0.00,2,2,0,2,46143,50000,1453,50000,0,0,0,0,0.00,0.00,0.00,0.00
2014-09-24 15:40:00,2,40745,16,0.00,2,2,0,2,22952,50000,10154,44630,0,41,20,0,0.00,0.00,0.00,0.00
2014-09-24 15:50:00,2,43769,72,0.00,2,2,0,2,31532,50000,6180,45362,41,77,11,77,0.00,0.00,0.00,0.00
2014-09-24 16:00:00,2,30647,55,0.03,2,2,0,2,11224,50000,16066,21977,41,77,17,41,0.00,0.10,0.04,0.00
2014-09-24 16:10:00,2,30894,74,0.02,2,2,0,2,20649,37905,6454,32498,71,77,3,74,0.00,0.10,0.03,0.00
2014-09-24 16:20:00,2,26115,76,0.02,2,2,0,2,19411,34746,4711,25470,71,77,2,77,0.00,0.05,0.02,0.00
2014-09-24 16:30:00,2,7102,71,0.30,2,2,0,2,4505,12195,2624,5468,71,71,0,71,0.10,0.60,0.17,0.28
2014-09-24 16:40:00,2,4796,71,0.84,2,2,0,2,3413,6463,897,4674,71,71,0,71,0.35,1.35,0.33,0.88
2014-09-24 16:50:00,2,4544,71,0.83,2,2,0,2,2916,6632,1121,4252,71,71,0,71,0.40,1.75,0.41,0.75
2014-09-24 17:00:00,2,3885,71,0.68,2,2,0,2,1830,5161,949,4024,71,71,0,71,0.30,1.30,0.31,0.62
2014-09-24 17:10:00,2,1104,71,3.32,2,2,0,2,712,1517,226,1150,71,72,0,71,1.85,5.25,1.02,3.45
2014-09-24 17:20:00,2,2232,71,1.48,2,2,0,2,1457,2877,412,2188,71,71,0,71,0.75,2.50,0.55,1.27
2014-09-24 17:30:00,2,2314,71,1.53,2,2,0,2,1606,3053,407,2304,71,71,0,71,0.80,2.45,0.46,1.50
2014-09-24 17:40:00,2,2731,71,1.18,2,2,0,2,1832,3324,480,2744,71,71,0,71,0.40,2.00,0.51,1.18
2014-09-24 17:50:00,2,4508,71,0.79,2,2,0,2,2400,8757,1664,4091,71,71,0,71,0.20,1.15,0.24,0.85
2014-09-24 18:00:00,2,4594,71,0.69,2,2,0,2,2709,5879,911,4589,71,71,0,71,0.35,1.25,0.28,0.68
2014-09-24 18:10:00,2,6691,71,0.53,2,2,0,2,4181,10046,1853,5983,71,71,0,71,0.10,0.95,0.26,0.60
2014-09-24 18:20:00,2,8001,71,0.25,2,2,0,2,6121,11352,1503,7661,71,71,0,71,0.10,0.65,0.16,0.20
2014-09-24 18:30:00,2,17739,72,0.04,2,2,0,2,7589,26994,4940,17850,71,77,2,71,0.00,0.10,0.04,0.05
2014-09-24 18:40:00,2,33431,76,0.00,2,2,0,2,24876,41001,6595,34122,71,77,2,77,0.00,0.00,0.00,0.00
2014-09-24 18:50:00,2,29507,53,0.01,2,2,0,2,16059,36050,5457,30998,0,77,35,74,0.00,0.05,0.02,0.00
2014-09-24 19:00:00,2,38891,43,0.01,2,2,0,2,20250,47700,8453,41402,0,77,35,71,0.00,0.10,0.03,0.00
2014-09-24 19:10:00,2,18500,72,0.08,2,2,0,2,11956,27749,4584,17220,71,77,2,71,0.00,0.30,0.10,0.05
2014-09-24 19:20:00,2,27530,71,0.04,2,2,0,2,18101,41092,6736,27628,71,71,0,71,0.00,0.20,0.08,0.00
2014-09-24 19:30:00,2,41839,75,0.00,2,2,0,2,32383,47870,4081,41478,71,77,3,77,0.00,0.00,0.00,0.00
2014-09-24 19:40:00,2,49457,14,0.00,2,2,0,2,46786,50000,1088,50000,0,71,28,0,0.00,0.00,0.00,0.00
2014-09-24 19:50:00,2,45716,0,0.00,2,2,0,2,32508,50000,6111,48832,0,0,0,0,0.00,0.00,0.00,0.00
2014-09-24 20:00:00,2,44014,44,0.00,2,2,0,2,39252,48056,3081,44011,0,77,36,71,0.00,0.00,0.00,0.00
2014-09-24 20:10:00,2,46187,53,0.00,2,2,0,2,43239,50000,2240,45719,0,77,35,74,0.00,0.00,0.00,0.00
2014-09-24 20:20:00,2,48952,0,0.00,2,2,0,2,44720,50000,1600,49666,0,0,0,0,0.00,0.00,0.00,0.00
2014-09-24 20:30:00,2,45455,0,0.00,2,2,0,2,37752,50000,4568,45886,0,0,0,0,0.00,0.00,0.00,0.00
2014-09-24 20:40:00,2,43177,0,0.00,2,2,0,2,32528,50000,5122,42072,0,0,0,0,0.00,0.00,0.00,0.00
2014-09-24 20:50:00,2,38425,61,0.03,2,2,0,2,9730,50000,12174,42006,41,77,16,71,0.00,0.25,0.07,0.00
2014-09-24 21:00:00,2,15197,71,0.14,2,2,0,2,7479,30302,6651,13383,71,71,0,71,0.00,0.50,0.16,0.08
2014-09-24 21:10:00,2,7428,71,0.23,2,2,0,2,4153,13291,2813,6934,71,71,0,71,0.05,0.75,0.18,0.20
2014-09-24 21:20:00,2,5200,71,0.19,2,2,0,2,3546,7029,1012,5298,71,71,0,71,0.05,0.30,0.09,0.20
2014-09-24 21:30:00,2,7839,71,0.06,2,2,0,2,5877,9964,1476,7997,71,71,0,71,0.00,0.15,0.05,0.05
2014-09-24 21:40:00,2,7646,71,0.16,2,2,0,2,4650,10399,2055,7058,71,71,0,71,0.05,0.35,0.11,0.15
2014-09-24 21:50:00,2,6885,69,0.70,2,2,0,2,3024,15467,3514,6085,67,71,2,69,0.20,1.60,0.41,0.60
2014-09-24 22:00:00,2,24672,45,0.23,2,2,0,2,3040,36708,10357,28440,0,71,19,41,0.00,1.70,0.50,0.03
2014-09-24 22:10:00,2,36722,22,0.01,2,2,0,2,20205,46244,7806,39604,0,77,34,0,0.00,0.05,0.02,0.00
2014-09-24 22:20:00,2,49027,0,0.00,2,2,0,2,45929,50000,1529,50000,0,0,0,0,0.00,0.00,0.00,0.00
2014-09-24 22:30:00,2,49575,0,0.00,2,2,0,2,48465,50000,526,49920,0,0,0,0,0.00,0.00,0.00,0.00
2014-09-24 22:40:00,2,48392,0,0.00,2,2,0,2,43366,50000,2068,49286,0,0,0,0,0.00,0.00,0.00,0.00
2014-09-24 22:50:00,2,41872,12,0.00,2,2,0,2,21781,50000,9786,46712,0,41,18,0,0.00,0.00,0.00,0.00
2014-09-24 23:00:00,2,48467,0,0.00,2,2,0,2,44129,50000,1958,49106,0,0,0,0,0.00,0.00,0.00,0.00
2014-09-24 23:10:00,2,49467,0,0.00,2,2,0,2,46009,50000,1220,50000,0,0,0,0,0.00,0.00,0.00,0.00
2014-09-24 23:20:00,2,49981,0,0.00,2,2,0,2,49812,50000,56,50000,0,0,0,0,0.00,0.00,0.00,0.00
2014-09-24 23:30:00,2,49868,0,0.00,2,2,0,2,49178,50000,273,50000,0,0,0,0,0.00,0.00,0.00,0.00
2014-09-24 23:40:00,2,49051,0,0.00,2,2,0,2,44334,50000,1942,50000,0,0,0,0,0.00,0.00,0.00,0.00
2014-09-24 23:50:00,2,49890,0,0.00,2,2,0,2,48899,50000,330,50000,0,0,0,0,0.00,0.00,0.00,0.00
